Location: Unspecified
(33.4390°N, 83.7350°W)
Time: 11:32:30
(UTC-05:00)

Daily predictions for brighter satellites

Satellite Brightness Start Highest point End
(mag) Time Altitude Azimuth Time Altitude Azimuth Time Altitude Azimuth
Cosmos 2366 rocket 4.1 17:51:13 10° S 17:57:21 82° W 18:03:33 10° N
COSMO-SKYMED 1 3.6 17:54:12 10° NE 17:57:51 26° E 18:01:29 10° SSE
YAOGAN 1 4.0 17:58:11 10° ESE 18:01:03 18° ENE 18:03:56 10° NNE
Cosmos 2360 Rocket 2.2 17:56:04 10° SSW 18:01:40 75° ESE 18:07:17 10° NNE
SEDSat Delta rocket 4.2 17:55:00 10° W 18:01:46 75° S 18:08:02 10° E
EPKM 3.9 18:01:07 10° SSW 18:02:07 12° SSE 18:03:15 10° SE
CSL-04 Rocket 4.2 17:59:29 10° SE 18:04:14 35° ENE 18:09:03 10° N
CCE 1 Rocket 4.3 18:02:07 10° WSW 18:05:46 45° S 18:10:16 10° ESE
Cosmos 2333 Rocket 3.5 18:04:29 10° SE 18:08:28 20° E 18:12:15 11° ENE
SMAP 3.1 18:08:13 10° SSE 18:12:51 88° E 18:17:33 10° NNW
Cosmos 724 4.4 18:10:25 10° SSW 18:16:13 63° ESE 18:22:14 10° NE
Cosmos 1378 Rocket 3.5 18:11:57 10° S 18:16:18 69° E 18:20:37 10° NNE
Ariane Rocket 3.8 18:12:56 10° SE 18:17:07 27° ENE 18:21:18 10° NNE
CSL-04 Debris 4.4 18:13:53 10° SE 18:19:01 46° ENE 18:24:09 10° N
DNEPR-1 R/B 4.5 18:15:29 10° S 18:20:03 43° ESE 18:25:16 11° NE
Cosmos 1975 2.7 18:18:13 10° N 18:22:16 71° E 18:26:16 10° SSE
Okean 1 Rocket 3.2 18:18:20 10° N 18:22:37 50° E 18:26:50 10° SSE
Cosmos 968 Rocket 3.9 18:19:22 10° SSW 18:24:34 67° WNW 18:29:50 10° N
Gbstr 26 Del rocket 4.4 18:17:32 10° SW 18:25:29 78° SE 18:31:30 15° NE
Cosmos 2237 Rocket 3.9 18:24:31 10° ESE 18:26:28 12° E 18:26:28 12° E
Cosmos 1515 4.4 18:25:20 10° SSE 18:28:47 33° E 18:31:31 14° NNE
TSX-5 3.2 18:29:24 10° SSW 18:32:33 78° ESE 18:35:24 15° NNE
Cosmos 2322 3.8 18:30:45 10° SSW 18:36:23 83° WNW 18:42:06 10° NNE
Meteor 1-12 Rocket 4.1 18:31:25 10° N 18:37:03 70° E 18:42:39 10° SSE
GPS 2-04 Rocket1 3.7 18:34:10 10° W 18:38:10 47° SSW 18:42:14 10° SE
CZ-4 R/B 4.3 18:40:57 10° SSE 18:45:01 68° ENE 18:49:07 10° N
ALOS 3.9 18:40:59 10° SSW 18:45:16 37° W 18:49:35 10° NNW
SKYMED 2 3.6 18:41:40 10° N 18:46:01 80° WNW 18:50:20 10° SSW
Chunghua 1 4.4 18:45:54 10° WSW 18:49:35 89° N 18:50:49 40° ENE
ATLAS 3B R/B 3.9 18:48:23 10° SSE 18:53:29 21° ESE 18:54:07 21° E
Meteor 2-9 Rocket 4.1 18:48:04 10° N 18:53:46 79° E 18:59:15 10° S
Cosmos 1934 Rocket 3.9 18:48:40 10° S 18:54:52 67° E 19:00:59 10° NNE
CZ-4 R/B 1.7 18:50:41 10° S 18:54:52 72° WSW 18:59:06 10° NNW
SeaSat 1 4.4 18:51:57 10° S 18:56:19 32° WSW 19:00:42 10° NW
GPS 2-05 Rocket1 3.5 18:54:28 10° W 18:57:25 43° SSW 18:58:27 30° SSE
Lacrosse 5 rocket 3.4 18:54:04 10° W 18:57:58 26° NW 19:01:12 13° N
CZ-3B Rocket 4.2 18:58:25 10° SSW 19:01:30 19° SSE 19:07:10 10° ESE
USA 238 DEB 4.0 18:57:18 10° S 19:03:37 44° ESE 19:06:05 32° ENE
USA 238 4.0 18:57:23 10° S 19:03:43 44° ESE 19:06:09 32° ENE
Cosmos 1980 4.4 18:59:24 10° SSE 19:04:20 32° ESE 19:04:26 32° E
ISS -0.7 19:03:56 10° W 19:06:06 17° SW 19:08:15 10° S
Cosmos 1538 Rocket 4.3 19:02:01 10° N 19:07:08 44° ENE 19:09:14 30° ESE
Delta 2 Rocket 3.2 19:04:54 10° WNW 19:08:43 69° N 19:09:13 61° NE
NOSS 3-2 (A) 4.2 19:05:16 10° SSE 19:09:40 28° ESE 19:09:40 28° ESE
Cosmos 1605 Rocket 3.9 19:05:03 10° S 19:11:02 59° E 19:15:41 18° NNE
Shenzhou-11 Module 4.2 19:10:27 10° WNW 19:11:56 17° NNW 19:11:56 17° NNW
DMSP B5D1-3 4.4 19:10:56 16° NNE 19:15:04 88° WNW 19:20:10 10° SSW
Cosmos 2219 Rocket 2.1 19:09:46 10° SSW 19:15:26 88° WNW 19:18:37 27° NNE
Cosmos 1844 Rocket 2.5 19:11:37 10° NNW 19:17:17 74° ENE 19:22:54 10° SSE
Envisat 2.9 19:13:31 10° SSE 19:18:30 59° ENE 19:23:28 10° N
H-2A R/B 4.2 19:18:11 10° SSW 19:21:48 39° W 19:25:29 10° NNW
COSMOS 2428 3.3 19:21:32 10° SW 19:27:09 56° WNW 19:30:53 21° N
Meteor 2-12 Rocket 4.3 19:29:58 10° S 19:36:01 72° E 19:37:05 59° NE
YAOGAN 1 4.3 19:33:00 10° SSW 19:36:52 32° W 19:40:45 10° NW
BREEZE M DEB (TANK) 4.2 19:35:51 10° NW 19:39:54 84° SW 19:55:42 10° SE
NOSS 0 Rocket 3.8 19:38:22 10° SSW 19:44:30 89° ESE 19:45:19 70° NNE
SEDSat Delta rocket 4.4 19:41:56 10° W 19:48:12 49° SSW 19:49:15 44° SSE
Meteor 1-15 Rocket 4.3 19:44:26 10° N 19:50:20 82° W 19:56:15 10° S
Cosmos 2333 Rocket 3.1 19:46:54 10° SW 19:52:18 45° WNW 19:54:19 33° NNW
BREEZE-M R/B 4.0 19:51:19 10° WNW 19:54:38 37° SW 19:55:11 35° SSW
Cosmos 2237 Rocket 2.9 20:04:15 10° SSW 20:08:22 49° SW 20:08:22 49° SW
ATLAS 3B R/B 3.7 20:36:40 10° SW 20:41:26 43° WSW 20:41:26 43° WSW
